Location: Bannatyne
(13.0833°N, 59.5333°W)
Time: 17:00:35
(UTC+00:00)

ISS - Pass Details

Date: 24 June 2021
Orbit: 419 x 421 km, 51.6° (Epoch: 02 August)

Event Time Altitude Azimuth Distance (km) Brightness Sun altitude
Exits shadow 07:38:00 15° 357° (N) 1,212 -1.1 -25.5°
Drops below altitude 10° 07:38:52 10° 7° (N) 1,488 -0.5 -25.4°
Sets 07:41:11 0° 21° (NNE) 2,351 0.9 -24.9°
